Tracking 30970 objects as of 3-Jul-2025
HD Live streaming from Space Station
objects crossing your sky now

SL-14 DEB

Track SL-14 DEB now!
10-day predictions


NORAD ID: 45330
Int'l Code: 1991-056BU
Perigee: 1,065.6 km
Apogee: 1,177.9 km
Inclination: 82.6 °
Period: 107.6 minutes
Semi major axis: 7492 km
RCS: Unknown
Launch date: August 15, 1991
Source: Commonwealth of Independent States (former USSR) (CIS)
Launch site: PLESETSK MISSILE AND SPACE COMPLEX (PKMTR)

Note: This is SATELLITE DEBRIS
Your satellite tracking list
Your tracking list is empty




NASA's NSSDC Master Catalog

Two Line Element Set (TLE):
1 45330U 91056BU  25183.88154041  .00000821  00000-0  14936-2 0  9992
2 45330  82.5644 342.0786 0074962  50.9601 309.8174 13.38576177262319
Source of the keplerian elements: AFSPC